sat.trackr.live / text

‹ back to catalog

UNKNOWN

NORAD 89304

UNKNOWN UNKNOWN UNKNOWN

§ Identity

Operator
Country
Launch date
Launch site
Launch vehicle
Mass (kg)
RCS (m²)

External: N2YO · Heavens-Above

§ Orbital elements

Epoch: 2026-09-18T15:02:03.000768Z

Period
154.26 min
Inclination
84.0664°
Eccentricity
0.2817271
Mean motion
9.33511114 rev/d
Perigee alt
465.4 km
Apogee alt
5,833.8 km
Semi-major
9,527.7 km
B*
1.4431e-2
RAAN
25.2438°
Arg perigee
334.7256°
Mean anomaly
21.4636°
Rev number
46,406

§ Raw data

UNKNOWN1 89304U          26261.62642362  .00031977  00000+0  14431-1 0  99922 89304  84.0664  25.2438 2817271 334.7256  21.4636  9.33511114464066

JSON: /api/v1/satellites/89304 · /tle

For live sub-satellite position, see the globe view (requires WebGL).

§ Visibility from observer

Set your observer location to see the next 7 days of passes ≥ 10°. The values pass through the URL so the page stays shareable.

No JS? Fill the form by hand. The geolocation button needs JavaScript.